Location: Be?i?
(36.9044°N, 30.1006°E)
Time: 11:14:56
(UTC+00:00)

Milstar 3 - Pass Details

Date: 05 August 2024
Orbit: 1098 x 5146 km, 28.2° (Epoch: 08 September)

Event Time Altitude Azimuth Distance (km) Brightness Sun altitude
Rises 20:02:34 0° 264° (W) 3,903 6.0 -29.1°
Reaches altitude 10° 20:05:11 10° 256° (WSW) 2,999 5.2 -29.4°
Enters shadow 20:09:46 35° 218° (SW) 1,929 3.8 -29.9°
